Theta_e
354 350 348 347 345 345 345 347 348 349 349 350 351 349 349 350 350 351 351 351 351 349 348 347 345 344 344 342 341 341 341 341
357 353 350 349 348 344 344 345 346 347 348 348 347 348 349 348 348 349 350 349 349 349 347 346 344 343 342 341 340 341 340 341
358 353 351 351 350 347 344 345 345 345 347 346 343 350 349 348 347 346 348 346 346 346 346 343 342 342 341 340 339 341 339 337
354 354 352 352 349 348 347 346 346 347 348 348 350 350 350 348 347 344 344 344 344 344 343 341 340 341 341 339 339 340 338 336
351 349 348 349 351 350 347 347 345 346 347 348 347 348 349 347 346 345 346 343 345 342 342 343 341 340 340 340 340 339 338 339
349 348 348 347 348 350 350 348 347 346 346 348 346 345 345 346 344 345 345 345 344 343 342 342 341 341 341 341 339 338 337 337
344 346 347 347 347 348 350 347 348 348 348 349 348 345 345 345 343 344 345 345 344 342 342 342 341 342 342 339 339 339 339 337
335 342 344 348 347 347 347 349 349 347 347 349 349 347 343 344 343 343 344 344 344 342 340 339 339 339 339 339 338 338 338 338
323 322 329 336 344 344 345 346 346 347 346 347 347 348 344 343 343 341 340 344 342 341 341 341 340 339 337 338 338 338 337 338
326 326 326 327 327 343 344 343 344 342 344 345 345 347 344 345 342 342 343 340 343 342 340 336 336 337 335 336 336 336 336 336
324 326 327 328 328 326 329 340 343 342 341 343 343 343 346 343 343 342 342 342 339 341 339 337 335 334 334 335 334 334 334 337
323 324 326 327 327 329 325 323 337 342 342 341 343 343 343 343 342 342 341 339 338 338 336 337 335 334 335 333 333 334 334 335
319 321 323 322 322 322 323 321 324 334 339 342 343 343 343 342 341 342 340 338 337 337 337 334 333 335 330 328 330 332 332 331
315 315 317 317 317 318 320 321 323 325 325 331 340 342 343 343 341 340 340 337 335 336 336 332 333 334 326 324 320 323 328 330
312 313 313 314 316 315 316 319 321 323 323 324 335 338 343 341 340 340 339 337 334 334 336 332 329 332 332 322 315 313 319 326
311 311 310 311 311 310 311 311 311 316 319 323 326 332 334 340 339 340 338 338 334 333 335 334 331 327 331 330 325 322 315 314
309 308 308 307 307 308 307 307 308 310 312 315 318 324 330 337 338 339 338 338 336 333 333 333 332 329 328 328 326 325 323 318
306 305 304 304 304 304 303 303 303 305 307 309 313 318 325 333 336 337 336 335 336 335 334 333 332 331 328 327 326 323 321 318
302 302 300 300 300 300 300 300 300 300 302 305 308 312 317 325 333 334 335 336 336 336 335 333 332 330 329 327 327 325 324 322
300 297 296 297 296 296 297 297 297 298 300 302 305 309 314 320 330 332 333 333 334 335 334 334 333 331 329 329 327 326 326 324
Wind_Speed
12 10 10 10 10 11 11 11 11 12 12 12 13 13 13 13 12 11 10 9 7 6 6 7 7 7 7 6 6 6 6 6
11 11 10 9 8 10 11 10 11 10 10 10 10 11 11 11 10 10 10 8 9 9 7 8 8 7 7 7 7 6 7 8
4 11 10 9 9 8 9 10 10 10 9 9 8 7 9 11 11 12 11 9 8 7 8 7 7 6 7 7 7 4 6 4
6 5 10 10 8 10 8 8 6 6 7 9 7 8 9 10 12 11 11 10 8 8 8 7 6 5 5 7 4 6 5 2
11 9 4 2 6 8 6 5 6 6 8 8 8 7 5 7 5 7 6 7 5 6 6 5 7 6 5 6 6 6 4 4
12 11 10 6 5 4 8 8 8 7 8 9 7 5 6 5 5 8 7 6 8 6 6 8 8 8 8 7 6 6 3 1
6 9 12 12 11 8 6 7 8 7 10 11 8 8 6 6 5 6 8 8 8 7 6 8 8 7 5 4 6 5 3 1
4 1 9 10 10 11 6 4 7 8 6 5 13 8 8 6 7 7 8 8 8 8 6 6 5 4 6 5 5 3 4 2
9 8 4 5 8 7 6 5 6 8 8 9 8 10 7 8 5 6 5 8 9 7 5 5 6 5 5 5 4 5 4 5
8 8 9 8 7 5 4 5 5 6 6 8 13 11 12 6 6 5 4 5 8 7 5 4 4 5 4 4 4 5 6 6
7 8 8 9 8 6 6 7 5 6 6 6 12 14 12 10 9 8 6 4 4 8 7 7 5 4 5 5 4 5 5 5
6 6 6 7 6 6 4 5 8 7 7 8 8 12 14 11 8 10 10 5 4 4 7 5 5 7 7 7 6 5 5 5
8 6 6 5 5 6 6 4 6 5 8 9 9 9 14 13 10 9 10 11 11 9 5 6 4 4 4 2 2 3 5 5
7 9 9 7 7 8 7 8 7 8 9 11 13 9 12 13 12 10 12 10 13 13 7 4 5 5 3 4 3 3 5 5
9 9 10 9 9 8 7 8 8 8 7 8 8 7 10 15 13 12 10 9 10 13 12 11 9 7 8 5 3 5 3 4
9 10 11 10 11 10 11 9 10 9 10 11 12 11 15 15 15 13 12 10 12 13 11 12 10 10 7 8 5 4 4 2
9 11 11 11 12 11 9 11 10 10 12 17 16 14 15 14 16 14 13 11 13 14 15 15 12 11 11 9 10 5 4 2
8 10 12 13 13 12 12 13 14 12 12 12 13 13 12 14 17 16 14 14 13 13 15 16 15 13 10 10 9 9 7 4
11 12 13 13 14 14 14 15 15 17 15 12 15 13 13 14 16 16 14 14 14 14 15 16 17 14 14 12 7 7 3 5
14 15 15 16 17 16 14 15 10 12 13 13 13 14 14 18 12 16 17 15 15 14 13 13 16 14 16 13 10 9 8 8
Wind_Direction
138 156 151 151 160 155 152 158 162 166 167 168 167 168 172 176 179 184 194 184 198 205 189 185 184 188 203 209 224 250 255 276
138 149 160 165 166 158 159 162 163 166 169 169 168 169 175 177 179 187 198 193 202 194 188 188 191 195 208 218 231 260 258 274
179 157 166 169 171 167 160 165 169 164 162 160 152 184 183 183 193 190 199 195 196 189 194 185 187 198 214 222 234 238 254 259
141 116 162 172 182 157 180 176 183 187 181 168 188 201 180 195 191 196 191 188 186 178 186 177 185 204 193 207 227 251 249 291
141 137 153 198 220 159 178 181 185 191 191 180 198 196 204 196 185 191 183 180 194 184 176 194 207 225 207 186 216 235 244 112
158 156 157 184 241 207 181 187 185 185 201 193 184 212 206 184 189 179 184 181 196 197 196 192 208 214 243 183 211 219 237 82
149 189 170 172 220 221 217 196 179 189 188 193 202 193 210 201 194 189 188 194 183 199 200 194 203 204 229 209 218 231 274 307
111 155 196 189 195 226 225 201 178 194 213 206 196 207 197 208 196 200 183 190 190 190 199 203 190 180 200 206 231 240 240 227
34 18 48 272 201 230 250 272 225 190 186 203 235 211 219 200 194 205 201 183 188 187 199 170 186 188 204 202 202 214 219 229
26 26 358 347 347 261 204 238 263 228 192 187 201 219 217 202 203 229 246 193 179 188 181 186 204 177 183 197 186 183 209 219
11 20 5 346 341 337 323 283 232 247 219 204 198 216 205 220 198 212 230 265 185 182 193 186 191 178 183 182 177 188 200 197
28 21 357 342 316 303 289 285 256 235 235 219 207 203 215 198 217 188 194 220 243 239 183 188 171 178 200 189 169 182 200 181
11 350 2 351 327 327 320 299 296 259 226 234 214 208 201 213 206 181 190 196 218 232 190 183 194 187 134 142 133 178 189 195
359 3 2 357 343 341 314 306 296 296 304 297 221 228 207 202 208 198 193 197 201 216 214 163 171 190 166 112 193 224 213 215
0 1 352 351 347 328 322 318 307 298 276 275 254 233 218 206 209 208 192 207 200 211 205 192 190 192 182 152 172 211 126 198
1 357 348 346 352 339 328 313 300 300 301 301 304 282 232 211 215 211 197 197 206 209 208 203 189 192 193 215 216 151 172 154
6 348 344 349 347 337 328 313 311 315 308 306 300 295 282 220 201 208 205 207 211 204 208 203 201 197 199 189 213 232 221 158
359 352 344 343 340 329 321 309 301 298 293 292 295 292 288 269 206 202 201 204 216 206 210 206 207 204 196 200 194 192 199 180
357 357 343 338 331 325 321 312 302 291 288 283 280 283 282 272 243 213 202 195 206 210 204 206 208 206 192 195 190 208 184 199
359 353 341 335 329 324 315 304 295 287 280 278 275 273 275 281 266 225 217 199 203 213 218 206 202 206 202 184 184 189 194 196